Date String (YYYY-MM-DD hh:mm:ss) UTC,Instrument flags,Ambient pressure (hPa),Sample flow (lpm),Bypass flow (lpm),Sample temperature (°C),Ambient temperature (°C),ASC tube jacket temperature (°C),LED temperature (°C),Box temperature (°C),Sample RH (%),Span deviation,Mass concentration (μg/m³),Mass concentration (μg/m³),Mass concentration (μg/m³)
DateTimeUTC,F1_M11,P_M11,Q1_M11,Q2_M11,T1_M11,T2_M11,T3_M11,T4_M11,T5_M11,U1_M11,ZSPAN_M11,X0_M11,X2_M11,X1_M11
2021-09-22 14:00:00,,0835.9,4.99,0.00,27.4,26.5,00.0,36.5,29.3,12.2,0000.0,0003.64,0001.91,0001.57
2021-09-22 14:01:00,,0835.9,5.00,0.00,27.5,26.5,00.0,36.5,29.3,11.5,0000.0,0003.34,0001.90,0001.56
2021-09-22 14:02:00,,0835.9,5.01,0.00,27.5,26.5,00.0,36.5,29.3,11.2,0000.0,0003.38,0001.91,0001.57
2021-09-22 14:03:00,,0835.8,5.00,0.00,27.5,26.5,00.0,36.5,29.3,11.5,0000.0,0003.39,0001.90,0001.57
2021-09-22 14:04:00,,0835.8,4.98,0.00,27.5,26.6,00.0,36.5,29.3,11.9,0000.0,0003.53,0001.90,0001.57
2021-09-22 14:05:00,,0835.8,5.01,0.00,27.5,26.6,00.0,36.5,29.3,11.9,0000.0,0003.40,0001.89,0001.58
2021-09-22 14:06:00,,0835.8,5.01,0.00,27.5,26.6,00.0,36.6,29.4,12.1,0000.0,0003.30,0001.89,0001.58
2021-09-22 14:07:00,,0835.8,5.00,0.00,27.5,26.6,00.0,36.6,29.4,12.9,0000.0,0003.37,0001.91,0001.58
2021-09-22 14:08:00,,0835.8,5.00,0.00,27.5,26.7,00.0,36.6,29.4,12.7,0000.0,0003.26,0001.91,0001.59
2021-09-22 14:09:00,,0835.8,4.99,0.00,27.6,26.7,00.0,36.6,29.4,13.0,0000.0,0003.41,0001.98,0001.60
2021-09-22 14:10:00,,0835.8,5.01,0.00,27.6,26.7,00.0,36.6,29.4,12.9,0000.0,0003.41,0001.98,0001.61
2021-09-22 14:11:00,,0835.9,5.00,0.00,27.6,26.7,00.0,36.6,29.4,13.5,0000.0,0003.55,0002.01,0001.63
2021-09-22 14:12:00,,0835.8,5.01,0.00,27.6,26.8,00.0,36.6,29.4,13.4,0000.0,0003.97,0002.06,0001.66
2021-09-22 14:13:00,,0835.8,4.99,0.00,27.6,26.8,00.0,36.6,29.4,12.8,0000.0,0003.96,0002.08,0001.67
2021-09-22 14:14:00,,0835.8,5.00,0.00,27.6,26.8,00.0,36.7,29.5,12.4,0000.0,0003.87,0002.06,0001.68
2021-09-22 14:15:00,,0835.8,5.00,0.00,27.6,26.8,00.0,36.7,29.5,12.5,0000.0,0004.58,0002.05,0001.69
2021-09-22 14:16:00,,0835.8,5.02,0.00,27.7,26.8,00.0,36.7,29.5,12.5,0000.0,0005.25,0002.09,0001.70
2021-09-22 14:17:00,,0835.8,4.99,0.00,27.7,26.8,00.0,36.7,29.5,12.9,0000.0,0005.35,0002.12,0001.72
2021-09-22 14:18:00,,0835.8,4.99,0.00,27.7,26.9,00.0,36.7,29.5,12.9,0000.0,0005.92,0002.10,0001.73
2021-09-22 14:19:00,,0835.8,5.01,0.00,27.7,26.9,00.0,36.7,29.5,12.8,0000.0,0005.98,0002.10,0001.74
2021-09-22 14:20:00,,0835.7,4.99,0.00,27.7,26.9,00.0,36.7,29.6,12.5,0000.0,0005.87,0002.08,0001.76
2021-09-22 14:21:00,,0835.7,4.99,0.00,27.7,26.9,00.0,36.7,29.6,11.8,0000.0,0006.00,0002.11,0001.77
2021-09-22 14:22:00,,0835.7,5.02,0.00,27.7,26.9,00.0,36.8,29.6,12.0,0000.0,0005.94,0002.09,0001.77
2021-09-22 14:23:00,,0835.8,5.00,0.00,27.8,26.9,00.0,36.8,29.6,11.3,0000.0,0005.61,0002.07,0001.76
2021-09-22 14:24:00,,0835.8,4.99,0.00,27.8,26.9,00.0,36.8,29.6,11.8,0000.0,0005.75,0002.12,0001.76
2021-09-22 14:25:00,,0835.8,5.01,0.00,27.8,26.9,00.0,36.8,29.6,11.4,0000.0,0006.55,0002.15,0001.76
2021-09-22 14:26:00,,0835.8,4.99,0.00,27.8,27.0,00.0,36.8,29.6,11.4,0000.0,0006.90,0002.17,0001.76
2021-09-22 14:27:00,,0835.8,5.01,0.00,27.8,27.0,00.0,36.8,29.6,11.4,0000.0,0007.01,0002.18,0001.76
2021-09-22 14:28:00,,0835.7,5.00,0.00,27.8,27.0,00.0,36.8,29.7,11.3,0000.0,0007.24,0002.23,0001.75
2021-09-22 14:29:00,,0835.7,5.00,0.00,27.8,27.0,00.0,36.8,29.7,11.0,0000.0,0007.70,0002.30,0001.74
2021-09-22 14:30:00,,0835.8,5.01,0.00,27.8,27.0,00.0,36.9,29.7,10.6,0000.0,0007.81,0002.34,0001.73
2021-09-22 14:31:00,,0835.7,5.00,0.00,27.8,27.0,00.0,36.9,29.7,10.6,0000.0,0008.64,0002.34,0001.72
2021-09-22 14:32:00,,0835.7,5.01,0.00,27.8,27.1,00.0,36.9,29.7,10.4,0000.0,0008.64,0002.37,0001.71
2021-09-22 14:33:00,,0835.8,4.99,0.00,27.9,27.1,00.0,36.9,29.7,11.2,0000.0,0008.65,0002.38,0001.71
2021-09-22 14:34:00,,0835.8,5.00,0.00,27.9,27.1,00.0,36.9,29.7,11.3,0000.0,0008.60,0002.39,0001.72
2021-09-22 14:35:00,,0835.8,5.01,0.00,27.9,27.1,00.0,36.9,29.8,11.5,0000.0,0008.60,0002.37,0001.73
2021-09-22 14:36:00,,0835.8,5.00,0.00,27.9,27.1,00.0,36.9,29.8,12.4,0000.0,0008.23,0002.40,0001.73
2021-09-22 14:37:00,,0835.8,5.00,0.00,27.9,27.2,00.0,36.9,29.8,12.6,0000.0,0007.66,0002.40,0001.73
2021-09-22 14:38:00,,0835.8,5.01,0.00,27.9,27.2,00.0,37.0,29.8,13.0,0000.0,0007.29,0002.43,0001.74
2021-09-22 14:39:00,,0835.8,4.99,0.00,27.9,27.2,00.0,37.0,29.8,12.6,0000.0,0006.99,0002.38,0001.74
2021-09-22 14:40:00,,0835.8,5.00,0.00,28.0,27.2,00.0,37.0,29.8,11.2,0000.0,0005.98,0002.33,0001.73
2021-09-22 14:41:00,,0835.7,5.01,0.00,28.0,27.2,00.0,37.0,29.8,12.7,0000.0,0006.01,0002.31,0001.72
2021-09-22 14:42:00,,0835.8,5.01,0.00,28.0,27.2,00.0,37.0,29.9,13.2,0000.0,0004.47,0002.27,0001.71
2021-09-22 14:43:00,,0835.8,5.00,0.00,28.0,27.2,00.0,37.0,29.9,12.3,0000.0,0004.45,0002.23,0001.70
2021-09-22 14:44:00,,0835.7,5.01,0.00,28.0,27.3,00.0,37.1,29.9,12.4,0000.0,0004.35,0002.19,0001.69
2021-09-22 14:45:00,,0835.8,4.99,0.00,28.0,27.3,00.0,37.1,29.9,12.3,0000.0,0004.58,0002.20,0001.67
2021-09-22 14:46:00,,0835.8,4.99,0.00,28.0,27.3,00.0,37.1,29.9,11.8,0000.0,0004.54,0002.14,0001.65
2021-09-22 14:47:00,,0835.8,5.00,0.00,28.1,27.3,00.0,37.1,30.0,12.0,0000.0,0004.47,0002.12,0001.64
2021-09-22 14:48:00,,0835.7,5.00,0.00,28.1,27.3,00.0,37.1,30.0,12.5,0000.0,0004.77,0002.08,0001.63
2021-09-22 14:49:00,,0835.7,5.02,0.00,28.1,27.3,00.0,37.1,30.0,13.2,0000.0,0004.78,0002.03,0001.62
2021-09-22 14:50:00,,0835.7,4.99,0.00,28.1,27.4,00.0,37.1,30.0,13.5,0000.0,0004.70,0002.01,0001.61
2021-09-22 14:51:00,,0835.7,5.01,0.00,28.1,27.4,00.0,37.2,30.0,14.1,0000.0,0004.79,0002.01,0001.61
2021-09-22 14:52:00,,0835.7,5.01,0.00,28.2,27.4,00.0,37.2,30.0,14.0,0000.0,0006.78,0002.01,0001.63
2021-09-22 14:53:00,,0835.7,5.00,0.00,28.2,27.4,00.0,37.2,30.0,14.4,0000.0,0006.94,0002.06,0001.65
2021-09-22 14:54:00,,0835.7,4.99,0.00,28.2,27.4,00.0,37.2,30.1,14.2,0000.0,0007.37,0002.10,0001.67
2021-09-22 14:55:00,,0835.7,5.01,0.00,28.2,27.4,00.0,37.2,30.0,14.6,0000.0,0007.67,0002.15,0001.69
2021-09-22 14:56:00,,0835.7,5.00,0.00,28.2,27.5,00.0,37.2,30.1,14.3,0000.0,0008.00,0002.18,0001.71
2021-09-22 14:57:00,,0835.7,5.01,0.00,28.2,27.5,00.0,37.3,30.1,14.3,0000.0,0007.93,0002.19,0001.73
2021-09-22 14:58:00,,0835.7,5.00,0.00,28.2,27.5,00.0,37.3,30.1,14.0,0000.0,0007.98,0002.22,0001.75
2021-09-22 14:59:00,,0835.7,5.00,0.00,28.2,27.5,00.0,37.3,30.1,13.6,0000.0,0007.80,0002.27,0001.76
